Theta_e
314 313 313 321 325 325 331 328 326 344 346 344 342 344 343 343 350 348 347 350 345 346 347 339 331 329 328 326 326 327 330 330 330 330 332 329 326 326 328 332 335 338 340 340 340 340 339 339 338
313 313 320 317 325 328 328 326 327 328 339 337 338 345 344 348 351 348 348 348 345 347 347 339 332 330 329 325 325 325 327 329 332 334 332 328 327 326 328 331 334 335 337 338 339 339 338 337 336
311 313 317 321 322 327 327 324 327 328 335 337 339 346 348 354 350 348 349 350 346 348 349 339 332 331 330 325 325 325 327 329 332 332 330 327 326 328 327 328 329 330 330 330 331 332 331 329 328
312 308 310 321 324 322 324 325 324 336 338 340 340 346 350 349 349 349 351 351 347 351 349 340 333 331 331 326 325 326 329 333 334 332 327 324 324 326 328 329 329 329 328 327 327 327 326 325 324
310 307 312 318 321 322 322 323 325 326 328 337 340 352 353 349 350 350 352 351 349 352 351 340 334 331 332 329 325 325 328 332 335 332 328 326 324 324 325 325 325 325 324 324 324 324 324 324 323
307 307 313 315 318 320 323 322 323 325 326 326 350 354 351 349 352 352 350 349 348 351 350 341 335 332 333 331 327 324 326 331 336 334 329 326 325 324 324 324 324 324 323 323 323 323 322 322 322
306 308 312 315 314 318 321 322 323 324 324 325 350 356 350 347 349 351 350 348 347 350 351 344 337 332 333 334 330 326 325 328 337 335 330 326 326 326 325 324 323 322 322 322 323 323 323 324 323
305 306 311 314 315 314 317 321 322 323 326 337 348 353 352 346 348 350 350 349 350 351 350 349 340 335 333 335 333 329 325 325 332 335 331 327 328 328 327 326 326 327 327 327 328 328 327 326 326
303 306 306 310 315 316 315 318 318 327 341 352 344 347 347 344 349 349 349 350 350 350 350 348 342 339 334 335 336 333 329 327 327 331 332 328 328 329 329 328 327 328 331 335 336 336 334 331 331
306 304 307 307 312 314 314 315 317 328 353 353 350 346 344 346 347 347 347 347 348 349 349 349 344 342 337 336 338 337 334 330 328 327 331 329 328 328 328 326 326 332 337 339 339 340 339 339 337
312 313 308 310 310 310 312 313 315 326 344 351 351 348 343 345 345 345 345 346 347 348 348 349 353 344 341 338 339 340 337 333 329 327 329 330 329 328 326 334 338 340 341 342 341 340 340 341 341
316 312 312 310 312 312 312 312 314 314 316 323 335 344 343 344 344 342 342 344 346 347 347 347 352 347 345 341 340 340 339 335 329 327 328 329 329 327 330 339 341 342 343 343 342 341 342 343 346
316 315 314 313 312 311 312 312 313 313 314 314 314 333 345 343 342 342 341 342 344 345 346 346 346 346 348 344 340 341 340 336 330 326 327 328 328 326 334 343 345 344 344 344 344 348 345 347 348
314 316 316 315 313 312 312 312 313 314 314 315 330 342 345 343 341 341 342 341 340 342 345 346 346 347 344 342 340 340 339 337 332 326 326 328 328 330 340 346 347 346 349 350 350 349 349 347 345
316 317 316 316 315 313 310 313 313 313 313 314 317 346 344 344 341 341 341 340 339 339 340 342 341 340 339 337 337 337 336 335 330 324 326 328 328 332 343 350 347 349 350 350 348 347 345 344 340
319 315 317 314 315 313 313 314 312 312 312 314 314 345 346 347 347 345 342 341 339 337 337 339 340 340 338 334 330 330 331 330 325 325 326 330 336 343 348 347 350 350 349 346 346 343 339 327 319
318 317 317 317 315 314 313 313 312 311 311 313 314 343 345 348 343 343 342 340 339 337 336 337 337 336 334 334 333 330 329 328 329 330 332 336 343 345 349 349 351 348 346 342 333 326 318 313 311
322 320 316 318 311 313 314 312 311 312 311 313 321 341 345 347 343 344 343 341 338 337 336 337 338 337 337 340 342 342 339 337 337 340 339 343 344 346 349 351 349 342 340 326 316 313 313 311 309
322 319 314 315 314 312 310 313 312 312 311 312 320 342 345 345 340 344 342 341 341 339 338 340 346 344 343 345 345 346 344 345 345 343 344 344 346 348 349 346 338 329 322 313 312 312 311 311 309
322 323 321 314 314 311 309 310 312 311 311 315 326 340 343 340 340 342 343 341 341 341 340 344 346 346 344 343 344 337 343 342 340 344 347 347 347 347 345 336 330 319 315 314 313 312 312 312 313
322 323 321 316 314 312 310 312 312 322 336 329 333 335 339 342 341 341 341 339 341 341 342 344 345 345 345 342 342 337 338 337 336 337 343 343 345 345 337 329 327 316 315 315 315 314 314 314 315
322 319 320 321 314 313 311 311 311 321 334 335 330 335 336 339 339 338 339 337 340 341 342 343 343 343 343 341 341 338 336 333 334 338 335 342 342 339 331 338 320 316 317 317 317 316 316 315 315
320 318 319 320 314 313 313 311 312 328 335 335 333 334 334 337 339 337 337 338 337 340 336 335 336 340 338 337 338 338 335 332 335 335 330 332 327 327 330 319 318 318 318 318 318 317 317 316 316
318 318 315 312 311 314 313 313 314 320 319 332 335 335 336 336 336 336 336 336 337 337 337 337 338 338 339 338 338 338 336 335 332 330 329 327 328 322 319 319 319 319 319 319 318 317 317 316 314
316 314 316 316 317 316 315 316 313 314 316 326 333 334 335 337 337 335 335 333 334 335 336 335 336 336 336 336 337 338 339 336 331 329 328 324 321 320 320 320 320 320 319 318 317 315 313 311 310
315 314 317 319 320 318 318 318 316 315 314 327 332 333 334 336 334 335 333 330 332 334 335 335 334 334 334 334 337 338 337 335 331 329 325 320 321 322 322 321 320 318 317 315 313 312 310 308 307
317 317 315 318 318 317 318 317 316 319 325 333 336 337 336 333 331 331 330 331 332 333 333 334 334 335 338 339 337 336 336 335 334 331 325 321 323 322 322 320 317 315 315 313 311 308 306 306 306
315 316 320 318 322 320 320 320 316 318 322 329 334 336 336 333 331 329 331 332 332 332 332 335 335 336 337 338 335 335 334 333 332 326 322 323 323 321 318 317 315 314 311 308 306 306 306 305 304
314 316 318 319 321 323 323 319 319 329 328 318 323 330 333 332 332 330 330 332 334 333 333 334 336 335 335 337 335 335 332 330 330 324 323 322 319 317 316 314 312 309 307 306 307 306 304 303 303
313 315 316 319 324 321 323 322 325 331 332 329 324 317 325 328 329 328 330 332 337 337 334 335 336 335 333 333 332 333 335 330 324 323 320 317 316 314 312 310 308 307 307 306 305 304 302 301 301
Wind_Speed
7 4 2 3 2 4 3 6 3 4 1 3 6 2 4 2 5 4 3 17 41 42 38 33 30 28 25 25 26 28 29 28 27 25 24 23 22 21 20 19 17 15 13 11 9 8 6 5 4
3 1 3 2 4 2 5 4 7 8 3 7 2 2 3 4 2 4 8 20 35 40 39 34 31 29 26 25 26 27 28 28 26 25 23 22 21 20 18 17 15 13 11 9 7 6 4 2 1
2 3 4 4 4 9 6 6 9 3 7 4 3 2 2 3 3 10 5 28 35 38 35 34 31 29 27 25 25 26 27 26 25 23 21 19 18 17 16 14 12 10 9 7 5 4 2 1 1
3 4 4 4 10 7 7 5 6 2 2 3 4 3 5 7 4 8 26 32 38 33 34 33 31 29 27 25 25 25 25 24 22 21 20 19 17 16 15 13 11 9 7 5 3 1 1 2 4
2 2 3 4 9 4 6 6 2 2 2 3 4 3 3 3 9 22 28 31 36 26 30 31 29 28 26 25 25 25 24 23 22 20 18 17 16 14 13 11 9 7 5 4 2 1 2 4 6
1 2 2 13 7 6 5 6 4 3 4 5 3 2 0 11 15 25 33 35 33 27 30 29 28 27 26 24 24 25 25 23 21 18 16 15 14 13 12 10 8 6 4 3 1 2 4 6 7
5 4 5 3 18 6 4 3 5 4 5 6 7 4 1 8 17 22 30 34 33 28 24 26 27 25 24 23 22 22 23 23 20 17 15 14 13 11 10 8 5 3 2 2 3 5 6 7 9
4 3 5 6 7 9 4 6 4 8 13 0 7 6 6 7 23 24 27 32 31 26 24 22 26 25 25 24 21 20 21 22 20 17 16 14 12 11 9 7 4 3 3 4 5 6 7 8 8
4 1 6 6 7 4 3 5 5 2 4 1 3 3 1 29 26 25 25 23 26 24 27 25 28 27 25 24 22 20 18 20 20 18 16 14 12 10 8 6 4 4 4 5 7 7 8 9 10
5 5 5 5 6 6 4 5 2 2 3 3 2 4 19 28 27 24 24 24 26 27 27 27 31 30 27 25 23 20 18 19 20 19 17 14 12 10 7 6 5 5 5 7 8 10 11 13 13
5 5 5 3 5 4 3 3 2 3 4 5 4 5 14 19 20 19 19 19 22 29 28 27 25 30 29 27 23 21 19 18 19 19 17 15 13 11 9 6 5 5 7 9 10 10 11 13 13
3 7 4 4 1 2 3 7 3 5 6 4 3 3 13 15 16 16 18 19 19 21 26 26 27 27 25 25 25 22 21 20 20 21 19 17 14 12 9 6 6 7 9 8 9 10 12 11 11
2 2 6 12 7 6 4 8 6 8 9 9 10 7 16 14 13 16 18 18 20 21 19 20 22 23 22 24 24 22 21 20 20 20 19 16 15 12 9 8 8 7 7 6 5 8 8 10 11
2 10 13 4 5 4 2 6 3 7 5 9 8 2 9 11 10 13 18 18 21 19 22 24 25 26 24 23 21 21 20 19 18 18 17 17 15 11 9 8 8 7 4 3 2 2 4 8 13
5 2 4 16 8 5 5 9 20 10 7 10 8 5 8 10 19 15 20 23 25 19 21 23 25 23 23 21 18 19 18 19 18 17 17 17 15 12 10 9 4 4 1 2 2 4 5 10 13
7 7 4 6 15 7 5 19 12 9 7 11 10 7 9 4 8 15 22 24 25 26 25 25 24 23 21 19 17 16 16 17 17 17 17 17 15 13 9 6 5 3 3 2 4 5 9 11 15
2 5 7 3 16 9 15 1 8 8 10 10 9 8 9 7 5 15 23 25 28 30 29 27 23 22 19 15 11 13 15 16 17 16 17 17 15 12 8 8 7 4 3 3 4 6 10 15 17
3 3 8 8 8 15 16 8 5 4 8 11 9 9 10 9 6 11 23 26 28 28 28 26 22 20 17 13 9 7 10 14 16 14 17 19 17 15 14 12 9 5 6 5 6 9 11 15 18
5 3 7 9 6 7 3 14 14 4 5 8 7 8 11 11 8 16 21 28 32 31 31 30 27 26 23 16 9 6 12 10 15 19 21 24 21 16 16 13 12 7 8 9 9 9 11 19 22
4 2 4 3 5 5 8 9 16 4 6 8 9 8 12 8 10 12 21 24 30 38 38 33 31 30 26 19 17 10 2 8 14 11 12 16 18 12 11 10 11 8 8 8 12 11 12 13 18
6 4 2 2 2 3 7 2 6 2 1 5 5 7 11 19 17 14 17 22 22 29 40 38 34 35 36 34 25 22 16 9 15 10 14 13 14 9 11 10 7 7 7 10 11 14 15 14 14
4 6 6 6 1 5 3 4 5 5 3 5 8 7 14 14 13 13 15 17 24 29 37 39 40 35 35 35 39 31 27 24 22 19 19 20 18 20 13 2 7 10 8 9 11 11 15 13 11
6 5 7 6 3 4 1 4 5 4 5 9 10 8 7 13 15 16 15 21 22 29 28 25 20 27 24 21 19 19 23 13 12 15 20 25 22 16 10 11 14 10 7 9 9 11 11 10 7
5 2 3 4 2 2 4 4 4 8 11 2 4 4 6 7 7 7 8 12 16 21 24 19 18 21 26 28 23 21 21 17 21 25 21 18 17 13 14 16 10 8 7 6 9 9 9 9 8
4 4 2 2 1 5 4 2 8 4 6 11 12 9 9 8 8 8 9 9 15 17 19 17 16 18 15 10 11 18 23 30 28 28 24 18 17 17 17 12 9 6 5 7 7 8 10 10 9
5 7 4 5 5 3 2 5 5 4 5 7 8 3 9 8 7 9 6 10 14 15 18 19 17 15 15 14 15 22 26 30 31 31 24 20 21 19 13 11 8 6 6 6 9 10 12 10 8
4 4 3 5 2 4 3 4 8 5 5 4 7 6 8 9 9 7 6 11 14 16 20 21 16 12 13 18 22 26 29 32 31 28 26 25 22 17 13 10 8 6 5 8 9 10 11 10 10
4 4 1 2 4 4 0 2 2 4 3 6 7 9 8 6 8 8 7 11 13 14 14 15 15 19 22 24 28 31 28 30 30 29 28 23 19 17 14 10 6 4 5 7 9 11 11 12 13
2 2 4 4 2 4 3 2 4 4 3 8 7 9 11 10 10 10 10 14 13 10 14 13 20 21 21 25 25 26 24 27 28 27 25 23 20 15 10 5 4 4 7 9 12 12 13 14 13
6 6 4 4 2 2 3 3 5 4 4 2 7 9 7 7 5 7 10 15 15 16 20 19 22 21 23 23 23 21 24 31 32 29 26 23 19 13 9 5 3 5 8 10 11 12 12 15 14
Wind_Direction
311 305 306 53 48 60 241 248 267 279 228 217 106 170 197 183 205 209 61 163 160 162 163 164 164 159 153 149 152 153 152 150 150 149 147 144 143 144 143 141 139 136 134 133 131 127 117 106 89
326 137 98 87 124 177 246 238 226 237 352 336 244 223 166 239 64 109 108 161 161 161 163 165 167 159 154 152 154 154 153 151 150 150 149 149 149 148 147 146 144 143 143 144 144 144 140 128 92
295 170 106 152 181 212 218 218 246 243 279 262 259 192 62 303 60 153 175 160 161 162 165 166 169 160 155 154 157 158 156 154 154 152 151 151 151 148 148 148 149 148 147 149 152 161 157 160 351
192 32 30 151 221 244 209 210 174 167 330 278 287 111 84 8 164 164 147 160 161 161 168 169 170 163 158 157 160 162 160 158 157 156 155 155 154 154 153 152 152 151 150 153 156 171 309 338 341
145 62 155 203 240 233 233 271 155 182 288 294 298 229 109 40 125 152 151 157 159 157 168 171 172 166 162 160 162 167 167 164 164 162 160 158 158 156 155 155 156 158 160 164 183 242 317 335 338
88 110 157 212 227 228 244 235 290 228 213 274 205 127 311 137 146 153 161 160 164 158 167 172 174 171 167 166 167 172 173 172 170 167 164 162 161 160 162 163 166 171 179 191 234 300 322 331 336
155 124 210 196 222 255 215 195 230 273 275 267 140 144 268 176 167 159 156 161 165 157 164 173 175 174 173 172 171 176 180 179 177 173 169 168 169 169 168 166 170 180 217 278 307 318 323 330 333
130 135 186 215 187 243 225 193 206 202 260 125 143 194 223 181 161 155 153 158 156 154 162 170 176 177 180 177 177 181 185 186 186 182 177 179 180 180 178 174 181 218 262 288 301 311 316 319 327
134 209 218 196 153 225 228 194 202 226 236 191 191 194 196 142 144 146 145 147 148 156 167 177 178 181 185 183 182 186 189 191 192 193 190 189 190 191 194 200 208 240 274 300 313 321 323 324 325
173 194 217 202 191 178 194 196 202 186 216 231 210 86 132 145 154 160 165 164 161 163 170 176 183 183 186 186 187 188 191 196 199 198 199 201 202 206 218 228 237 261 293 311 318 325 328 330 329
197 225 165 255 217 205 195 282 262 161 203 243 215 163 156 155 166 177 177 173 171 166 167 175 182 186 187 188 189 192 197 200 205 204 207 209 215 218 226 227 232 273 301 313 310 320 330 329 328
198 190 215 214 242 74 185 303 296 223 232 219 248 184 161 168 179 184 178 172 167 170 169 172 182 187 190 191 193 197 203 204 207 207 211 216 222 230 231 236 262 287 306 317 320 330 332 338 348
188 292 180 246 272 292 308 275 267 253 257 287 288 187 182 181 172 174 185 172 168 169 170 174 172 183 190 193 201 203 209 213 213 212 215 222 230 237 242 260 284 289 308 323 323 319 328 336 340
165 187 254 258 245 262 247 258 206 265 226 247 283 139 180 159 159 160 165 168 170 178 186 184 184 190 193 196 205 211 216 223 225 222 223 229 235 239 252 282 283 298 294 294 312 14 360 348 347
294 191 215 236 243 233 171 267 237 236 305 296 287 112 118 137 163 169 176 169 170 178 192 194 191 192 193 197 206 215 222 227 231 232 232 237 241 240 255 279 239 250 210 117 81 22 355 339 342
172 160 167 228 211 234 177 248 253 225 198 247 265 153 134 124 128 156 177 176 174 183 187 186 189 188 195 197 203 209 222 232 237 238 242 242 241 234 251 249 217 181 143 86 34 8 356 355 353
264 171 171 250 206 200 192 235 201 224 191 224 248 159 146 126 108 135 162 170 175 183 176 177 182 188 188 196 214 227 230 234 246 248 250 246 245 244 247 221 186 169 134 53 43 38 18 8 357
200 167 197 213 198 203 211 252 312 227 179 206 230 161 156 143 137 124 140 155 165 170 171 163 164 169 178 181 192 232 263 266 260 262 256 257 249 242 232 200 168 156 122 84 61 52 31 22 3
11 179 156 227 230 162 175 202 248 232 223 226 230 155 158 150 153 134 135 149 156 164 165 163 154 157 162 153 148 91 39 346 312 275 262 258 252 231 226 178 139 121 96 83 73 51 37 27 17
271 353 295 209 184 147 175 193 234 177 230 202 196 157 154 140 155 151 151 151 157 166 168 160 160 158 167 167 135 103 156 57 12 341 259 246 226 224 166 148 115 120 87 87 70 63 59 43 33
238 210 253 214 139 165 143 179 192 215 257 262 251 145 163 164 166 169 167 171 167 170 170 169 172 183 185 183 181 174 174 245 272 356 282 248 235 194 163 144 129 114 123 93 74 55 52 56 48
220 207 224 285 105 171 154 222 255 198 199 249 231 196 166 176 179 174 173 185 182 184 178 185 193 194 193 190 189 190 184 193 219 186 193 187 185 173 164 167 155 157 123 93 68 51 43 40 48
226 226 202 226 234 112 275 102 239 133 206 224 227 219 196 176 179 179 189 192 193 198 204 205 207 214 208 203 215 203 199 195 175 190 182 148 149 144 152 165 174 143 101 70 53 42 42 40 47
168 183 44 55 84 53 230 132 250 197 199 185 260 194 200 181 167 165 169 180 203 216 231 229 212 209 217 220 211 206 205 197 162 160 147 147 141 147 169 181 157 113 86 65 43 36 42 38 19
103 99 83 63 99 203 274 101 230 222 198 178 203 210 192 178 170 173 175 170 186 192 203 204 198 196 194 195 196 189 183 174 159 155 155 158 148 176 192 160 130 117 88 57 54 40 32 25 15
173 167 158 166 165 185 93 216 258 255 223 185 201 222 147 174 190 201 166 147 168 186 201 210 214 221 232 225 194 181 171 162 163 165 159 164 167 192 181 152 137 111 92 68 39 24 21 19 2
193 204 162 110 347 98 198 297 316 352 75 111 161 165 180 176 185 168 138 165 184 193 200 202 207 190 184 187 177 169 172 172 166 160 163 165 186 182 160 153 137 113 68 35 20 21 23 9 355
150 159 147 359 139 161 97 207 228 24 307 150 172 199 207 178 165 147 162 176 195 206 198 191 179 162 156 150 157 156 159 168 162 164 161 175 172 162 156 151 127 85 50 33 24 28 19 1 356
91 40 58 111 97 141 126 251 223 269 273 285 267 212 196 196 192 164 165 168 176 172 178 157 164 156 157 161 166 168 165 165 165 159 165 162 153 153 149 133 120 69 44 35 31 23 9 4 0
168 179 153 120 237 68 117 269 117 262 312 260 277 264 258 216 156 143 145 149 152 158 170 160 155 142 153 163 161 167 170 171 161 160 152 151 146 147 146 140 80 56 53 40 30 23 15 8 1